DateTimeUTC,F1_A11,F1_S11,BsB_S11,BsG_S11,BsR_S11,BbsB_S11,BbsG_S11,BbsR_S11,BaB_A11,BaG_A11,BaR_A11,Tu_S11,T_S11,Uu_S11,U_S11,P_S11,T1_A11
2021-09-29T08:00:00Z,00000200,21000000,,,,,,,-000.44,-000.28,-000.04,16.6,23.6,,00.0,0670.5,30.9
2021-09-29T08:01:00Z,00000200,21000000,,,,,,,0000.32,0000.09,-000.11,16.6,23.6,,00.0,0670.5,30.9
2021-09-29T08:02:00Z,00000200,21000000,,,,,,,-000.21,-000.00,0000.29,16.6,23.7,,00.0,0670.5,30.9
2021-09-29T08:03:00Z,00000200,61000000,,,,,,,0006.50,0005.98,0004.33,16.6,23.7,,00.0,0670.5,30.9
2021-09-29T08:04:00Z,00000200,41000000,0002.39,0001.54,0000.92,0000.28,0000.35,0000.17,0005.10,0004.47,0003.42,16.8,23.5,00.2,00.1,0671.4,30.9
2021-09-29T08:05:00Z,00000200,01000000,0001.79,0001.47,0001.29,-000.10,0000.24,0000.32,0003.68,0003.32,0002.25,16.9,23.5,00.1,00.1,0671.5,30.9
2021-09-29T08:06:00Z,00000200,01000000,0001.91,0001.39,0000.71,0000.57,0000.25,0000.03,0000.69,0000.58,0000.61,16.8,23.4,00.2,00.1,0671.4,30.9
2021-09-29T08:07:00Z,00000200,01000000,0002.07,0001.29,0000.98,0000.11,0000.16,0000.29,0000.47,0000.07,0000.36,16.8,23.4,00.3,00.2,0671.4,30.9
2021-09-29T08:08:00Z,00000200,01000000,0002.54,0001.59,0000.77,0000.02,0000.23,0000.16,0000.20,0000.64,0000.12,16.8,23.4,00.3,00.2,0671.4,30.9
2021-09-29T08:09:00Z,00000200,01000000,0001.62,0001.56,0000.68,0000.32,0000.31,0000.08,0000.87,0000.45,0000.67,16.8,23.4,00.3,00.2,0671.4,30.9
2021-09-29T08:10:00Z,00000200,01000000,0001.95,0001.67,0000.54,0000.58,0000.35,0000.19,0000.79,0000.51,0000.30,16.7,23.4,00.3,00.2,0671.4,30.9
2021-09-29T08:11:00Z,00000200,01000000,0001.82,0001.53,0000.98,0000.14,0000.27,0000.44,0000.51,0000.32,0000.35,16.7,23.3,00.3,00.2,0671.4,30.9
2021-09-29T08:12:00Z,00000200,01000000,0002.02,0001.30,0000.84,0000.87,-000.04,0000.27,0000.31,0000.84,0000.33,16.8,23.3,00.3,00.2,0671.5,30.9
2021-09-29T08:13:00Z,00000200,01000000,0001.77,0001.41,0000.94,0000.12,-000.03,0000.00,0000.34,0000.33,0000.38,16.8,23.3,00.3,00.2,0671.5,30.9
2021-09-29T08:14:00Z,00000200,01000000,0002.00,0001.52,0001.22,0000.71,0000.23,0000.24,0000.46,0000.58,0000.25,16.9,23.4,00.4,00.3,0671.5,30.9
2021-09-29T08:15:00Z,00000200,01000000,0001.59,0001.22,0000.83,0000.14,0000.40,0000.15,0000.79,0000.52,0000.38,17.0,23.4,00.3,00.2,0671.5,30.9
2021-09-29T08:16:00Z,00000200,01000000,0001.88,0001.58,0000.80,0000.15,0000.38,-000.15,0000.48,0000.51,0000.48,17.0,23.4,00.3,00.2,0671.5,30.9
2021-09-29T08:17:00Z,00000200,01000000,0001.98,0001.77,0000.93,0000.74,-000.01,0000.33,0000.81,0000.37,0000.52,17.1,23.5,00.4,00.2,0671.5,30.9
2021-09-29T08:18:00Z,00000200,01000000,0001.57,0001.38,0000.81,0000.31,0000.52,0000.22,0000.23,0000.27,0000.23,17.1,23.5,00.3,00.2,0671.5,30.9
2021-09-29T08:19:00Z,00000200,01000000,0001.65,0001.03,0001.05,0000.81,0000.09,0000.26,0000.41,0000.51,0000.47,17.1,23.5,00.3,00.2,0671.5,30.9
2021-09-29T08:20:00Z,00000200,01000000,0001.01,0001.61,0000.92,0000.18,0000.35,0000.31,0000.28,0000.31,0000.07,17.0,23.5,00.3,00.2,0671.4,30.9
2021-09-29T08:21:00Z,00000200,01000000,0000.84,0001.66,0001.10,0000.07,0000.19,0000.66,0000.26,0000.32,0000.36,17.0,23.4,00.3,00.2,0671.4,30.9
2021-09-29T08:22:00Z,00000200,01000000,0002.02,0001.23,0000.79,0000.78,0000.33,0000.35,0000.40,0000.28,0000.42,16.9,23.4,00.3,00.2,0671.4,30.9
2021-09-29T08:23:00Z,00000200,01000000,0002.53,0001.48,0001.01,0000.39,0000.25,0000.57,0000.71,0000.18,-000.07,16.9,23.4,00.3,00.2,0671.4,30.9
2021-09-29T08:24:00Z,00000200,01000000,0001.74,0001.27,0001.07,0000.33,0000.10,0000.21,0000.01,0000.47,0000.20,16.9,23.4,00.3,00.2,0671.4,30.9
2021-09-29T08:25:00Z,00000200,01000000,0001.54,0001.59,0001.22,-000.63,0000.10,0000.52,0000.43,0000.29,0000.44,16.8,23.3,00.2,00.2,0671.4,30.9
2021-09-29T08:26:00Z,00000200,01000000,0001.42,0001.54,0001.09,0000.31,0000.09,0000.32,0000.79,0001.05,0000.28,16.8,23.3,00.2,00.1,0671.4,30.9
2021-09-29T08:27:00Z,00000200,01000000,0002.24,0001.49,0001.11,0000.29,0000.02,0000.42,0000.64,0000.32,0000.70,16.9,23.3,00.2,00.2,0671.4,30.9
2021-09-29T08:28:00Z,00000200,01000000,0001.43,0001.39,0000.83,0000.67,0000.40,0000.16,0000.44,0000.29,0000.17,16.9,23.4,00.2,00.2,0671.4,30.9
2021-09-29T08:29:00Z,00000200,01000000,0001.61,0001.41,0001.12,0000.53,0000.14,0000.26,0000.51,0000.51,0000.60,17.0,23.4,00.2,00.2,0671.4,30.9
2021-09-29T08:30:00Z,00000200,01000000,0002.51,0001.40,0000.83,0000.41,0000.32,0000.06,0000.41,0000.24,0000.01,17.1,23.4,00.3,00.2,0671.4,30.9
2021-09-29T08:31:00Z,00000200,01000000,0001.35,0001.45,0001.06,0000.22,0000.09,0000.48,0000.73,0000.47,0000.65,17.2,23.5,00.2,00.1,0671.4,30.9
2021-09-29T08:32:00Z,00000200,01000000,0001.89,0001.34,0001.30,0000.46,0000.32,0000.10,0000.27,0000.56,0000.05,17.2,23.5,00.2,00.1,0671.4,30.9
2021-09-29T08:33:00Z,00000200,01000000,0001.80,0001.33,0000.68,0000.00,0000.25,-000.06,0000.39,0000.13,0000.46,17.3,23.5,00.3,00.2,0671.4,30.9
2021-09-29T08:34:00Z,00000200,01000000,0001.54,0001.45,0000.80,0000.24,0000.02,-000.02,0000.39,0000.42,0000.11,17.2,23.6,00.2,00.2,0671.4,30.9
2021-09-29T08:35:00Z,00000200,01000000,0002.17,0001.53,0001.13,0000.11,0000.05,0000.19,-000.14,-000.03,0000.06,17.2,23.5,00.2,00.1,0671.4,30.9
2021-09-29T08:36:00Z,00000200,01000000,0001.86,0001.39,0001.04,-000.25,0000.21,0000.06,0000.43,0000.40,0000.28,17.2,23.5,00.2,00.1,0671.4,30.9
2021-09-29T08:37:00Z,00000200,01000000,0001.81,0001.86,0001.23,0000.38,0000.37,0000.04,0000.59,0000.77,0000.34,17.1,23.5,00.2,00.1,0671.4,30.9
2021-09-29T08:38:00Z,00000200,01000000,0001.30,0001.82,0000.93,0000.09,0000.11,-000.15,0000.41,0000.00,-000.04,17.1,23.5,00.2,00.1,0671.4,30.9
2021-09-29T08:39:00Z,00000200,01000000,0001.80,0001.48,0000.89,0000.20,0000.05,0000.14,0000.33,0000.50,0000.51,17.0,23.4,00.2,00.1,0671.4,30.9
2021-09-29T08:40:00Z,00000200,01000000,0002.39,0000.99,0001.27,0000.37,0000.16,0000.15,0000.64,0000.49,0000.58,17.0,23.4,00.1,00.1,0671.4,30.9
2021-09-29T08:41:00Z,00000200,01000000,0002.00,0001.33,0001.09,0000.34,-000.06,0000.06,0000.43,0000.68,0000.17,17.0,23.4,00.3,00.2,0671.4,30.9
2021-09-29T08:42:00Z,00000200,01000000,0002.17,0001.41,0001.10,0000.17,0000.35,0000.10,0000.48,0000.46,0000.39,17.0,23.4,00.3,00.2,0671.4,30.9
2021-09-29T08:43:00Z,00000200,01000000,0001.82,0001.53,0001.04,0000.36,0000.12,-000.03,0000.45,0000.35,0000.31,17.1,23.5,00.3,00.2,0671.4,30.9
2021-09-29T08:44:00Z,00000200,01000000,0001.55,0001.41,0000.88,-000.20,0000.35,0000.37,0000.43,0000.31,0000.46,17.1,23.5,00.2,00.1,0671.4,30.9
2021-09-29T08:45:00Z,00000200,01000000,0002.09,0001.63,0000.71,0000.24,0000.31,-000.19,0000.34,0000.58,0000.03,17.2,23.6,00.2,00.1,0671.4,30.9
2021-09-29T08:46:00Z,00000200,01000000,0002.09,0001.47,0000.88,-000.05,0000.16,-000.24,0000.50,0000.30,0000.41,17.2,23.6,00.2,00.1,0671.4,31.0
2021-09-29T08:47:00Z,00000200,01000000,0002.01,0000.97,0001.04,0000.51,0000.30,0000.13,0000.21,0000.24,0000.26,17.2,23.6,00.2,00.1,0671.4,31.0
2021-09-29T08:48:00Z,00000200,01000000,0001.71,0001.42,0001.12,0000.98,0000.04,0000.31,0000.68,0000.38,-000.04,17.2,23.6,00.2,00.1,0671.3,30.9
2021-09-29T08:49:00Z,00000200,01000000,0001.44,0001.36,0000.73,-000.12,0000.20,-000.00,0000.16,0000.27,0000.72,17.1,23.5,00.2,00.1,0671.3,30.9
2021-09-29T08:50:00Z,00000200,01000000,0001.44,0001.51,0000.69,-000.25,0000.06,0000.32,0000.42,0000.18,0000.03,17.1,23.5,00.2,00.1,0671.3,30.9
2021-09-29T08:51:00Z,00000200,01000000,0001.43,0001.69,0000.87,-000.36,0000.19,0000.35,0000.34,0000.41,0000.07,17.1,23.5,00.1,00.1,0671.3,30.9
2021-09-29T08:52:00Z,00000200,01000000,0002.37,0001.71,0000.84,0000.18,0000.23,0000.19,0000.55,0000.46,0000.31,17.0,23.5,00.2,00.1,0671.3,30.9
2021-09-29T08:53:00Z,00000200,01000000,0002.12,0001.45,0001.06,0000.09,-000.04,0000.06,0000.34,0000.41,0000.27,17.0,23.5,00.2,00.2,0671.3,30.9
2021-09-29T08:54:00Z,00000200,01000000,0001.81,0001.76,0000.75,0000.30,0000.39,0000.06,0000.38,0000.14,0000.36,16.9,23.5,00.2,00.2,0671.3,30.9
2021-09-29T08:55:00Z,00000200,01000000,0002.10,0001.36,0000.99,-000.19,0000.21,0000.33,0000.74,0000.75,0000.34,16.9,23.4,00.3,00.2,0671.3,30.9
2021-09-29T08:56:00Z,00000200,01000000,0001.28,0001.16,0000.82,0000.12,0000.27,0000.27,0000.45,0000.46,0000.75,16.9,23.4,00.3,00.2,0671.3,30.9
2021-09-29T08:57:00Z,00000200,41000000,,,,,,,0000.33,0000.46,0000.20,16.9,23.4,,00.0,0671.4,31.0
2021-09-29T08:58:00Z,00000200,61000000,,,,,,,0000.02,-000.14,-000.01,16.7,23.6,00.0,00.0,0670.3,31.0
2021-09-29T08:59:00Z,00000200,21000000,,,,,,,0000.02,-000.01,-000.20,16.7,23.7,,00.0,0670.3,31.0
